Regional Weather Roundup
Issued by NWS

Home | Current Version | Previous Version | Text Only | Print | Product List | Glossary Off
Versions: 1 2 3 4 5 6 7 8 9 10 11 12 13 14 15 16 17 18 19 20 21 22 23 24 25 26 27 28 29 30 31 32 33 34 35 36 37 38 39 40 41 42 43 44 45 46 47 48 49 50

000
ASUS43 KFSD 201210
RWRSD

WEATHER ROUNDUP FOR SOUTH DAKOTA
NATIONAL WEATHER SERVICE SIOUX FALLS SD
700 AM CDT WED AUG 20 2014

NOTE: "FAIR" INDICATES FEW OR NO CLOUDS BELOW 12,000 FEET WITH NO
SIGNIFICANT WEATHER AND/OR OBSTRUCTIONS TO VISIBILITY.


SDZ001>005-009-010-012>017-201300-
NORTHWEST AND NORTH CENTRAL SOUTH DAKOTA

CITY           SKY/WX    TMP DP  RH WIND       PRES   REMARKS
BUFFALO          N/A     69  60  73 S8        29.64R
FAITH            N/A     68  63  84 SE13      29.70R
MOBRIDGE       MOCLDY    63  62  97 E12       29.70R
$$

SDZ012>016-024>037-041>051-057-063-072>074-201300-
SOUTHWEST AND SOUTH CENTRAL SOUTH DAKOTA

CITY           SKY/WX    TMP DP  RH WIND       PRES   REMARKS
RAPID CTY ARPT CLOUDY    64  57  78 CALM      29.73R
PIERRE         CLEAR     67  61  81 SE12      29.67F
CUSTER         CLOUDY    67  46  47 W10       29.89R
ELLSWORTH AFB  CLOUDY    68  56  65 W3        29.73R
PHILIP         MOCLDY    68  64  87 E7        29.70R
PINE RIDGE     CLOUDY    68  57  68 SW9       29.76S
WINNER         FAIR      68  65  90 SE9       29.74S
$$

SDZ004>011-016>023-039-040-201300-
NORTHEAST SOUTH DAKOTA

CITY           SKY/WX    TMP DP  RH WIND       PRES   REMARKS
ABERDEEN       PTCLDY    61  60  97 SE6       29.75S
WATERTOWN      CLOUDY    65  61  87 SE8       29.81R
SISSETON         N/A     60  60 100 S5        29.78S
$$

SDZ017-020-022-023-036>040-048>070-201300-
SOUTHEAST SOUTH DAKOTA

CITY           SKY/WX    TMP DP  RH WIND       PRES   REMARKS
SIOUX FALLS    TSTM      68  66  93 S3        29.82R
HURON          CLOUDY    68  64  87 E12       29.68F
CHAMBERLAIN    MOCLDY    67  64  91 SE13      29.72S
MITCHELL       CLOUDY    70  66  87 SE15      29.75F
YANKTON        CLOUDY    68  66  94 E8        29.77R
$$

ABBREVIATIONS USED IN REMARKS
   TC - TEMPERATURE IN CELSIUS
  WCI - WIND CHILL INDEX
   HX - HEAT INDEX
  VSB - VISIBILITY



USA.gov is the U.S. government's official web portal to all federal, state and local government web resources and services.